CW0630 Weather Reports


Display with metric or nautical units.
time (UTC)temp
F
wind
direction
speed
MPH
gust
MPH
rain 1hr
in
rain 24hr
in
rain mn
in
humidity
%
barometer
mb
20191023101011 51 324 1.0 3.0 0.00 0.59 0.00 98 1015.7
20191023091026 54 226 0.0 3.0 0.00 0.59 0.00 98 1014.8
20191023081023 56 283 0.0 4.0 0.00 0.59 0.00 98 1013.7
20191023071014 57 197 0.0 4.0 0.00 0.59 0.00 98 1013.2
20191023061024 57 347 0.0 2.0 0.00 0.59 0.00 98 1012.5
20191023051020 58 302 0.0 1.0 0.00 0.59 0.00 97 1012.3
20191023041015 58 9 2.0 5.0 0.00 0.59 0.00 97 1012.2
20191023031028 59 295 1.0 4.0 0.00 0.59 0.64 97 1012.3
20191023021017 60 301 1.0 6.0 0.00 0.59 0.64 97 1012.1
20191023011029 60 183 1.0 4.0 0.00 0.59 0.64 98 1011.5
20191023001022 61 106 1.0 4.0 0.00 0.59 0.64 98 1010.9
20191022231020 62 51 1.0 3.0 0.00 0.59 0.64 97 1009.9
20191022221011 62 29 3.0 4.0 0.24 0.59 0.64 97 1008.9
20191022211029 64 322 2.0 3.0 0.09 0.34 0.34 97 1009.2
20191022201020 64 123 2.0 8.0 0.18 0.25 0.25 97 1008.8
20191022191018 63 152 3.0 8.0 0.06 0.06 0.06 94 1008.9
20191022181023 64 153 4.0 10.0 0.00 0.00 0.00 90 1009.7
20191022171015 62 125 5.0 11.0 0.00 0.00 0.00 91 1011.6
20191022161028 60 132 7.0 14.0 0.00 0.00 0.00 93 1013.3
20191022151020 60 120 3.0 10.0 0.00 0.00 0.00 95 1014.0
20191022141015 59 163 3.0 10.0 0.00 0.00 0.00 94 1014.6
20191022131010 58 149 6.0 10.0 0.00 0.00 0.00 97 1015.3
20191022121021 57 183 2.0 4.0 0.00 0.00 0.00 98 1016.4
20191022111018 57 176 1.0 3.0 0.00 0.00 0.00 97 1016.0